Skip Page Navigation
NASA JPL Caltech
NASA Logo - Jet Propulsion Laboratory + View the NASA Portal
+ Center for Near-Earth Object Studies
JPL Home Earth Solar System Stars & Galaxies Technology
JPL Solar System Dynamics
BODIES ORBITS EPHEMERIDES TOOLS PHYSICAL DATA DISCOVERY FAQ SITE MAP
IMPORTANT: The SSD Announcement email list is now available. Major changes are coming in the near future, including possible hostname and/or URL changes. To be notified of such changes, subscribe to this email list.

Please visit this page for more details.


JPL Small-Body Database Browser
Search: [ help ]  
138947 (2001 BA40)
Classification: Apollo [NEO]          SPK-ID: 2138947
Ephemeris | Orbit Diagram | Orbital Elements | Mission Design | Physical Parameters | Discovery Circumstances | Close-Approach Data ]

[ hide orbit diagram ]

For accurate long-term ephemerides, please instead use our Horizons system.This orbit viewer was implemented using two-body methods, and hence should not be used for determining accurate long-term trajectories (over several years or decades) or planetary encounter circumstances.


[ revert to old Java-based viewer ]

Orbital Elements at Epoch 2458600.5 (2019-Apr-27.0) TDB
Reference: JPL 104 (heliocentric ecliptic J2000)
 Element Value Uncertainty (1-sigma)   Units 
e .2537863413589146 6.0055e-08  
a 1.118948327842005 2.4425e-09 au
q .8349745255493071 6.6951e-08 au
i 12.84533941043072 8.0549e-06 deg
node 270.8962433896264 1.945e-05 deg
peri .01954131494158201 2.9457e-05 deg
M 32.17680142716329 3.1663e-05 deg
tp 2458561.858511815834
(2019-Mar-19.35851182)
3.7974e-05 TDB
period 432.328109982876
1.18
1.4156e-06
3.876e-09
d
yr
n .8327008854785297 2.7265e-09 deg/d
Q 1.402922130134703 3.0624e-09 au
  Orbit Determination Parameters
   # obs. used (total)      334  
   data-arc span      6863 days (18.79 yr)  
   first obs. used      2001-01-23  
   last obs. used      2019-11-08  
   planetary ephem.      DE431  
   SB-pert. ephem.      SB431-N16  
   condition code      0  
   norm. resid. RMS      .63649  
   source      ORB  
   producer      Otto Matic  
   solution date      2019-Nov-09 05:22:25  

Additional Information
 Earth MOID = .181509 au 
 Jupiter MOID = 3.6893 au 
 T_jup = 5.525 
[ show covariance matrix ]

Ephemeris | Orbit Diagram | Orbital Elements | Mission Design | Physical Parameters | Discovery Circumstances | Close-Approach Data ]

Physical Parameter Table
Parameter Symbol Value Units Sigma Reference Notes
absolute magnitude H 18.6   n/a MPO445946  
diameter diameter 0.447 km 0.124 urn:nasa:pds:neowise_diameters_albedos::2.0[neos] (http://adsabs.harvard.edu/abs/2015ApJ...814..117N)  
geometric albedo albedo 0.292   0.282 urn:nasa:pds:neowise_diameters_albedos::2.0[neos] (http://adsabs.harvard.edu/abs/2015ApJ...814..117N)  

138947 (2001 BA40)          Discovered 2001-Jan-23 by NEAT at Haleakala
Reference: 20061205/Numbers.arcLast Updated: 2006-12-13

[ hide close-approach data ]
Close-Approach Data   ...sorted by Date/Time (TDB)
Date/Time (TDB) Time Uncertainty
(days_HH:MM)
Body Nominal Distance (au) Minimum Distance (au) Maximum Distance (au) V-relative (km/s) V-infinity (km/s) JD (TDB) Time Uncertainty (minutes) Semi-major axis (km) Semi-minor axis (km) range-LOV angle (deg) N-sigma BP Orbit Ref. Reference Modified
1904-Apr-15 04:45 00:03 Earth 0.212035351056404 0.212032533432352 0.212038169329801 9.65263930544052 9.65133737645959 2416585.697623444 2.95268391281381 606.365747246923 17.6947219665348 76.7071005940392 1301929.81464773 T 104 CATAB v2.0f-lin.ifort 2019-Nov-09 05:22:39 2019-Nov-09 05:22
1904-Dec-07 09:38 00:01 Earth 0.410438551683133 0.410437563883462 0.410439539531471 10.0706829385937 10.0700382957179 2416821.901228440 1.13971434098828 233.941165353089 11.0443224411443 78.1471982723504 3367829.51650192 T 104 CATAB v2.0f-lin.ifort 2019-Nov-09 05:22:39 2019-Nov-09 05:22
1905-Oct-03 22:37 < 00:01 Earth 0.487553215561484 0.487544294484816 0.487562136683493 20.7484120752998 20.748148679877 2417122.442707665 0.731858781580322 502.95257404406 19.74227441249 -27.8360310704102 1509582.54321056 T 104 CATAB v2.0f-lin.ifort 2019-Nov-09 05:22:39 2019-Nov-09 05:22
1910-May-01 17:09 < 00:01 Venus 0.110264854130954 0.110262975662152 0.110266733101321 10.2035195511019 10.2015892595098 2418793.214558932 0.135184428282858 383.769000763331 7.77758323774942 -75.9182880936276 2413533.37981206 T 104 CATAB v2.0f-lin.ifort 2019-Nov-09 05:22:39 2019-Nov-09 05:22
1911-Jan-14 09:02 < 00:01 Earth 0.398951032421161 0.398950065582097 0.398951999297213 9.76910787392717 9.76842419364413 2419050.876689005 0.945924676675263 205.937899454833 14.0069975443472 -77.0266235661434 2635845.05706259 T 104 CATAB v2.0f-lin.ifort 2019-Nov-09 05:22:39 2019-Nov-09 05:22
1911-Aug-08 13:36 00:02 Earth 0.195738346550937 0.195737453575746 0.195739239714053 9.44694708503264 9.44550603823815 2419257.066598949 2.37004549207852 323.012774882552 14.5108392204237 -82.5010294098947 1397903.23378342 T 104 CATAB v2.0f-lin.ifort 2019-Nov-09 05:22:39 2019-Nov-09 05:22
1917-May-05 18:17 00:02 Earth 0.194829368098843 0.194828506480141 0.194830229959263 9.4402932739279 9.43884448280919 2421354.261654302 1.94379196687827 363.328406640719 13.5974792097444 83.5527115533712 1433190.69117499 T 104 CATAB v2.0f-lin.ifort 2019-Nov-09 05:22:39 2019-Nov-09 05:22
1917-Nov-30 10:54 < 00:01 Earth 0.400578744195138 0.400577847551124 0.400579640859644 9.77393795337227 9.77325738776397 2421562.954000765 0.780255376228573 155.381669620279 12.5291774807443 73.9138220473817 2754092.47452179 T 104 CATAB v2.0f-lin.ifort 2019-Nov-09 05:22:39 2019-Nov-09 05:22
1923-Mar-11 15:41 < 00:01 Earth 0.498320546210169 0.498315718342227 0.498325374089271 21.216240691418 21.2159886698504 2423490.153468868 0.378491745955971 268.118945766063 19.7528933823928 26.1941486250041 1473220.41878385 T 104 CATAB v2.0f-lin.ifort 2019-Nov-09 05:22:39 2019-Nov-09 05:22
1924-Jan-07 12:48 < 00:01 Earth 0.40909904476589 0.409098614318495 0.409099475224355 10.0665169270029 10.0658699056395 2423792.033022230 0.587894165213096 129.909661592099 12.0204501269811 -82.0994816317323 3232783.23041662 T 104 CATAB v2.0f-lin.ifort 2019-Nov-09 05:22:39 2019-Nov-09 05:22
1924-Aug-27 18:28 00:02 Earth 0.211191320467671 0.211190140070333 0.21119250095441 9.51056455021316 9.50923788822667 2424025.269625748 1.53204930811649 234.640310745677 17.641085777481 -76.1163502118718 1376555.46335574 T 104 CATAB v2.0f-lin.ifort 2019-Nov-09 05:22:39 2019-Nov-09 05:22
1925-Sep-17 01:02 < 00:01 Venus 0.108288061822595 0.108287727277475 0.10828839650873 10.1671145800896 10.165142008477 2424410.543223113 0.0860016197009127 236.855048063094 9.43467400490431 -86.6667579444634 1799996.03367992 T 104 CATAB v2.0f-lin.ifort 2019-Nov-09 05:22:39 2019-Nov-09 05:22
1930-May-24 19:53 00:01 Earth 0.186087729379319 0.186087362884337 0.186088095941555 9.86889785940162 9.86744689120625 2426121.328536927 1.18764236173316 219.034798609813 10.7596181024948 86.1268276640484 1772297.11007428 T 104 CATAB v2.0f-lin.ifort 2019-Nov-09 05:22:39 2019-Nov-09 05:22
1930-Nov-22 23:41 < 00:01 Earth 0.386560434473043 0.386559613100783 0.386561255855433 9.39203461973661 9.3913006937924 2426303.486835377 0.588106593430849 113.061752362438 14.4110636214485 70.012334370911 2200694.52032446 T 104 CATAB v2.0f-lin.ifort 2019-Nov-09 05:22:39 2019-Nov-09 05:22
1936-Mar-16 04:33 < 00:01 Earth 0.412873572582412 0.412870176369783 0.41287696880558 18.2756454566892 18.2752923330895 2428243.689449430 0.306250059188389 199.1009604482 19.8604695293901 31.9033698987377 1429906.9706514 T 104 CATAB v2.0f-lin.ifort 2019-Nov-09 05:22:39 2019-Nov-09 05:22
1936-Dec-30 17:26 < 00:01 Earth 0.415987380716482 0.415987141357825 0.415987620077008 10.2192383742054 10.218611577089 2428533.226392051 0.435967453681861 96.2218807130025 10.597447794188 -86.7095991076002 3781441.97654632 T 104 CATAB v2.0f-lin.ifort 2019-Nov-09 05:22:39 2019-Nov-09 05:22
1937-Sep-12 16:49 < 00:01 Earth 0.246553811875633 0.246551904436633 0.246555719359621 11.4029883541249 11.4020405905726 2428789.200670512 0.615460573083326 194.488000336629 19.3690350733095 -61.2417332770175 1424259.21079259 T 104 CATAB v2.0f-lin.ifort 2019-Nov-09 05:22:39 2019-Nov-09 05:22
1941-Feb-02 07:40 < 00:01 Venus 0.109403792190425 0.109403122987406 0.109404461488151 10.1554740668574 10.1535193756205 2430027.819499783 0.0682083089014672 173.568617953212 11.1587973803461 79.5378976647308 1429900.04360186 T 104 CATAB v2.0f-lin.ifort 2019-Nov-09 05:22:39 2019-Nov-09 05:22
1943-Feb-14 18:42 < 00:01 Earth 0.333404711396787 0.333403705302186 0.333405717504408 7.56819057342958 7.56713453708379 2430770.278869451 0.726454920558632 124.357000261157 20.5026720587549 -68.0945844235628 1201914.50084652 T 104 CATAB v2.0f-lin.ifort 2019-Nov-09 05:22:39 2019-Nov-09 05:22
1943-Jun-12 08:10 < 00:01 Earth 0.181694212919402 0.181693997131367 0.18169442871574 10.2042422055172 10.2028049926772 2430887.840436508 0.84362523997077 147.258328794577 9.77895897043146 88.2496100270114 1976757.58784474 T 104 CATAB v2.0f-lin.ifort 2019-Nov-09 05:22:39 2019-Nov-09 05:22
1943-Nov-14 01:22 < 00:01 Earth 0.366893272517277 0.366892448065456 0.366894096975835 8.76183834476014 8.76100945282285 2431042.556902231 0.539556725246802 95.1304086395068 16.6867698518016 66.3556443173962 1652860.49589592 T 104 CATAB v2.0f-lin.ifort 2019-Nov-09 05:22:39 2019-Nov-09 05:22
1949-Mar-22 22:37 < 00:01 Earth 0.327328544784611 0.327326098201864 0.327330991380904 15.1110753982101 15.1105367058137 2432998.442435612 0.300832774463225 161.910812208022 19.8766981714223 41.490692188426 1390276.61059554 T 104 CATAB v2.0f-lin.ifort 2019-Nov-09 05:22:39 2019-Nov-09 05:22
1949-Dec-23 10:24 < 00:01 Earth 0.418847354229194 0.418847153560708 0.418847554897941 10.3037261157191 10.3031087034065 2433273.933450958 0.35060252913683 77.3236174471274 9.75754469500179 88.3459565171828 4113588.7353066 T 104 CATAB v2.0f-lin.ifort 2019-Nov-09 05:22:39 2019-Nov-09 05:22
